| time (UTC) | temp F | wind direction | speed knots | gust knots | rain 1hr in | rain 24hr in | rain mn in | humidity % | barometer mb |
| 20260504081505 | 45 | 10 | 0.0 | 0.0 | 0.00 | 0.00 | 0.00 | 56 | 1010.5 |
| 20260504044542 | 47 | 72 | 0.0 | 0.9 | 0.00 | 0.00 | 0.00 | 48 | 1011.3 |
| 20260504043049 | 47 | 72 | 0.0 | 0.9 | 0.00 | 0.00 | 0.00 | 49 | 1011.6 |
| 20260504041538 | 46 | 87 | 0.0 | 0.9 | 0.00 | 0.00 | 0.00 | 51 | 1011.7 |
| 20260504040034 | 45 | 92 | 0.0 | 0.0 | 0.00 | 0.00 | 0.00 | 52 | 1011.5 |
| 20260504034539 | 44 | 92 | 0.0 | 0.0 | 0.00 | 0.00 | 0.00 | 52 | 1011.3 |
| 20260504033034 | 44 | 93 | 0.0 | 0.0 | 0.00 | 0.00 | 0.00 | 52 | 1011.1 |
| 20260504031532 | 43 | 92 | 0.0 | 0.0 | 0.00 | 0.00 | 0.00 | 54 | 1011.1 |
| 20260504030031 | 43 | 93 | 0.0 | 0.9 | 0.00 | 0.00 | 0.00 | 54 | 1011.0 |
| 20260504024532 | 43 | 93 | 0.0 | 0.9 | 0.00 | 0.00 | 0.00 | 51 | 1010.9 |
| 20260504023031 | 44 | 93 | 0.0 | 0.9 | 0.00 | 0.00 | 0.00 | 51 | 1010.9 |
| 20260504021535 | 45 | 93 | 0.0 | 0.0 | 0.00 | 0.00 | 0.00 | 48 | 1011.0 |
| 20260504020035 | 46 | 94 | 0.0 | 0.9 | 0.00 | 0.00 | 0.00 | 45 | 1011.0 |
| 20260504014536 | 47 | 94 | 0.0 | 0.0 | 0.00 | 0.00 | 0.00 | 43 | 1011.1 |
| 20260504013030 | 48 | 94 | 0.0 | 0.9 | 0.00 | 0.00 | 0.00 | 38 | 1010.9 |
| 20260504011529 | 49 | 94 | 0.0 | 0.9 | 0.00 | 0.00 | 0.00 | 37 | 1010.8 |
| 20260504010027 | 50 | 105 | 0.0 | 1.7 | 0.00 | 0.00 | 0.00 | 35 | 1010.6 |
| 20260504004527 | 51 | 83 | 1.7 | 4.3 | 0.00 | 0.00 | 0.00 | 34 | 1010.5 |
| 20260504003028 | 51 | 89 | 1.7 | 3.5 | 0.00 | 0.00 | 0.00 | 33 | 1010.4 |
| 20260504001527 | 52 | 136 | 2.6 | 6.1 | 0.00 | 0.00 | 0.00 | 31 | 1010.1 |
| 20260504000026 | 52 | 120 | 1.7 | 7.0 | 0.00 | 0.00 | 0.00 | 30 | 1010.0 |
| 20260503234525 | 53 | 61 | 1.7 | 7.8 | 0.00 | 0.00 | 0.00 | 29 | 1009.8 |
| 20260503233024 | 54 | 139 | 1.7 | 6.1 | 0.00 | 0.00 | 0.00 | 27 | 1009.6 |
| 20260503231524 | 56 | 109 | 1.7 | 9.6 | 0.00 | 0.00 | 0.00 | 25 | 1009.3 |
| 20260503230024 | 56 | 112 | 1.7 | 9.6 | 0.00 | 0.00 | 0.00 | 23 | 1009.1 |
| 20260503224523 | 57 | 89 | 2.6 | 7.8 | 0.00 | 0.00 | 0.00 | 22 | 1009.0 |
| 20260503223023 | 57 | 110 | 2.6 | 11.3 | 0.00 | 0.00 | 0.00 | 21 | 1009.1 |
| 20260503221522 | 57 | 75 | 2.6 | 7.0 | 0.00 | 0.00 | 0.00 | 21 | 1009.0 |
| 20260503220021 | 57 | 61 | 1.7 | 10.4 | 0.00 | 0.00 | 0.00 | 21 | 1009.1 |
| 20260503214536 | 57 | 127 | 3.5 | 9.6 | 0.00 | 0.00 | 0.00 | 23 | 1009.0 |
| 20260503213020 | 56 | 51 | 3.5 | 13.9 | 0.00 | 0.00 | 0.00 | 22 | 1008.9 |
| 20260503211520 | 56 | 75 | 3.5 | 11.3 | 0.00 | 0.00 | 0.00 | 24 | 1009.0 |
| 20260503210018 | 56 | 61 | 3.5 | 7.0 | 0.00 | 0.00 | 0.00 | 23 | 1009.1 |
| 20260503204515 | 56 | 139 | 4.3 | 9.6 | 0.00 | 0.00 | 0.00 | 23 | 1009.2 |
| 20260503203012 | 55 | 36 | 1.7 | 7.8 | 0.00 | 0.00 | 0.00 | 28 | 1009.3 |
| 20260503201512 | 55 | 95 | 2.6 | 11.3 | 0.00 | 0.00 | 0.00 | 27 | 1009.6 |
| 20260503200008 | 55 | 76 | 4.3 | 8.7 | 0.00 | 0.00 | 0.00 | 27 | 1009.5 |
| 20260503194505 | 53 | 72 | 1.7 | 11.3 | 0.00 | 0.00 | 0.00 | 28 | 1009.9 |
| 20260503193005 | 53 | 70 | 3.5 | 7.8 | 0.00 | 0.00 | 0.00 | 29 | 1010.0 |
| 20260503191607 | 52 | 109 | 4.3 | 10.4 | 0.00 | 0.00 | 0.00 | 31 | 1010.1 |
| 20260503190059 | 51 | 28 | 3.5 | 7.8 | 0.00 | 0.00 | 0.00 | 32 | 1010.3 |
| 20260503184618 | 52 | 76 | 3.5 | 9.6 | 0.00 | 0.00 | 0.00 | 31 | 1010.5 |
| 20260503183054 | 50 | 63 | 2.6 | 7.8 | 0.00 | 0.00 | 0.00 | 34 | 1010.6 |
| 20260503181611 | 51 | 91 | 3.5 | 7.8 | 0.00 | 0.00 | 0.00 | 33 | 1010.6 |
| 20260503180111 | 50 | 131 | 4.3 | 9.6 | 0.00 | 0.00 | 0.00 | 34 | 1010.6 |
| 20260503174557 | 51 | 66 | 3.5 | 7.8 | 0.00 | 0.00 | 0.00 | 35 | 1010.8 |
| 20260503173100 | 50 | 167 | 3.5 | 10.4 | 0.00 | 0.00 | 0.00 | 35 | 1010.8 |
| 20260503171551 | 49 | 87 | 4.3 | 14.8 | 0.00 | 0.00 | 0.00 | 36 | 1010.8 |